| time (UTC) | temp F | wind direction | speed knots | gust knots | rain 1hr in | rain 24hr in | rain mn in | humidity % | barometer mb |
| 20260905224330 | 62 | 108 | 0.0 | 0.0 | 0.00 | 0.06 | 0.06 | 98 | 1011.9 |
| 20260905223824 | 62 | 116 | 0.9 | 0.9 | 0.00 | 0.06 | 0.06 | 98 | 1012.0 |
| 20260905223322 | 62 | 109 | 0.0 | 0.0 | 0.00 | 0.06 | 0.06 | 98 | 1011.9 |
| 20260905222817 | 63 | 108 | 0.0 | 0.0 | 0.00 | 0.06 | 0.06 | 98 | 1011.7 |
| 20260905222316 | 63 | 101 | 0.0 | 0.0 | 0.00 | 0.06 | 0.06 | 98 | 1011.7 |
| 20260905221812 | 63 | 106 | 0.0 | 0.0 | 0.00 | 0.06 | 0.06 | 98 | 1011.7 |
| 20260905221309 | 63 | 111 | 0.0 | 0.0 | 0.00 | 0.06 | 0.06 | 98 | 1011.9 |
| 20260905220803 | 63 | 111 | 0.0 | 0.0 | 0.00 | 0.06 | 0.06 | 98 | 1011.8 |
| 20260905220300 | 63 | 109 | 0.0 | 0.0 | 0.00 | 0.06 | 0.06 | 98 | 1011.7 |
| 20260905215759 | 63 | 109 | 0.0 | 0.0 | 0.00 | 0.06 | 0.06 | 98 | 1011.6 |
| 20260905215255 | 63 | 108 | 0.0 | 0.0 | 0.00 | 0.06 | 0.06 | 98 | 1011.2 |
| 20260905214750 | 63 | 111 | 0.0 | 0.9 | 0.00 | 0.06 | 0.06 | 98 | 1011.2 |
| 20260905214246 | 63 | 110 | 0.9 | 0.9 | 0.00 | 0.06 | 0.06 | 98 | 1011.2 |
| 20260905213741 | 63 | 110 | 0.0 | 0.0 | 0.00 | 0.06 | 0.06 | 98 | 1011.3 |
| 20260905213237 | 63 | 108 | 0.9 | 0.9 | 0.00 | 0.06 | 0.06 | 98 | 1011.3 |
| 20260905212732 | 63 | 108 | 0.0 | 0.0 | 0.00 | 0.06 | 0.06 | 98 | 1011.1 |
| 20260905212232 | 63 | 106 | 0.0 | 0.0 | 0.00 | 0.06 | 0.06 | 98 | 1011.2 |
| 20260905211731 | 63 | 107 | 0.0 | 0.0 | 0.00 | 0.06 | 0.06 | 98 | 1011.1 |
| 20260905211226 | 62 | 103 | 0.0 | 0.0 | 0.00 | 0.06 | 0.06 | 98 | 1011.0 |
| 20260905210724 | 63 | 118 | 0.0 | 0.9 | 0.00 | 0.06 | 0.06 | 98 | 1011.0 |
| 20260905210223 | 62 | 108 | 0.0 | 0.0 | 0.00 | 0.06 | 0.06 | 98 | 1011.1 |
| 20260905205721 | 62 | 99 | 0.0 | 0.0 | 0.00 | 0.06 | 0.06 | 98 | 1010.9 |
| 20260905205217 | 62 | 109 | 0.0 | 0.0 | 0.00 | 0.06 | 0.06 | 98 | 1011.1 |
| 20260905204716 | 62 | 109 | 0.9 | 0.9 | 0.00 | 0.06 | 0.06 | 98 | 1010.9 |
| 20260905204212 | 62 | 121 | 0.9 | 0.9 | 0.00 | 0.06 | 0.06 | 98 | 1011.0 |
| 20260905203712 | 62 | 108 | 0.0 | 0.0 | 0.00 | 0.06 | 0.06 | 98 | 1011.1 |
| 20260905203208 | 62 | 115 | 0.0 | 0.0 | 0.00 | 0.06 | 0.06 | 98 | 1011.0 |
| 20260905202703 | 62 | 109 | 0.0 | 0.0 | 0.00 | 0.06 | 0.06 | 98 | 1011.0 |
| 20260905202158 | 62 | 102 | 0.0 | 0.0 | 0.00 | 0.06 | 0.06 | 98 | 1011.0 |
| 20260905201653 | 62 | 106 | 0.0 | 0.0 | 0.19 | 0.06 | 0.06 | 97 | 1011.1 |
| 20260905201153 | 63 | 115 | 1.7 | 1.7 | 0.38 | 0.06 | 0.06 | 96 | 1011.0 |
| 20260905200648 | 63 | 111 | 0.0 | 0.9 | 0.26 | 0.04 | 0.04 | 96 | 1011.0 |
| 20260905200144 | 64 | 109 | 0.0 | 0.0 | 0.00 | 0.00 | 0.00 | 94 | 1010.9 |
| 20260905195642 | 64 | 95 | 0.0 | 0.9 | 0.00 | 0.00 | 0.00 | 93 | 1011.2 |
| 20260905195137 | 64 | 97 | 0.9 | 0.9 | 0.00 | 0.00 | 0.00 | 91 | 1010.9 |
| 20260905194632 | 66 | 93 | 3.5 | 6.1 | 0.00 | 0.00 | 0.00 | 86 | 1010.8 |
| 20260905194132 | 68 | 104 | 1.7 | 1.7 | 0.00 | 0.00 | 0.00 | 82 | 1010.6 |
| 20260905193626 | 69 | 97 | 0.0 | 0.0 | 0.00 | 0.00 | 0.00 | 81 | 1010.4 |
| 20260905193121 | 69 | 89 | 0.9 | 1.7 | 0.00 | 0.00 | 0.00 | 79 | 1010.4 |
| 20260905192617 | 70 | 100 | 0.9 | 0.9 | 0.00 | 0.00 | 0.00 | 78 | 1010.4 |
| 20260905192113 | 70 | 105 | 0.0 | 0.9 | 0.00 | 0.00 | 0.00 | 78 | 1010.2 |
| 20260905191612 | 70 | 143 | 0.9 | 1.7 | 0.00 | 0.00 | 0.00 | 79 | 1010.3 |
| 20260905191111 | 70 | 84 | 0.0 | 0.0 | 0.00 | 0.00 | 0.00 | 80 | 1010.3 |
| 20260905190609 | 70 | 102 | 0.9 | 0.9 | 0.00 | 0.00 | 0.00 | 79 | 1010.3 |
| 20260905190109 | 70 | 111 | 0.0 | 0.0 | 0.00 | 0.00 | 0.00 | 78 | 1010.2 |
| 20260905185608 | 72 | 105 | 1.7 | 1.7 | 0.00 | 0.00 | 0.00 | 77 | 1010.2 |
| 20260905185102 | 72 | 109 | 0.0 | 0.9 | 0.00 | 0.00 | 0.00 | 77 | 1010.5 |
| 20260905184557 | 71 | 109 | 0.0 | 0.0 | 0.00 | 0.00 | 0.00 | 75 | 1010.1 |
| 20260905184056 | 72 | 133 | 1.7 | 2.6 | 0.00 | 0.00 | 0.00 | 74 | 1010.1 |
| 20260905183555 | 72 | 102 | 1.7 | 2.6 | 0.00 | 0.00 | 0.00 | 75 | 1010.3 |
| 20260905183051 | 73 | 118 | 0.9 | 2.6 | 0.00 | 0.00 | 0.00 | 73 | 1010.0 |
| 20260905182551 | 73 | 107 | 0.0 | 0.9 | 0.00 | 0.00 | 0.00 | 75 | 1010.2 |
| 20260905182050 | 72 | 115 | 0.0 | 0.9 | 0.00 | 0.00 | 0.00 | 75 | 1010.1 |
| 20260905181545 | 72 | 119 | 1.7 | 1.7 | 0.00 | 0.00 | 0.00 | 74 | 1010.3 |
| 20260905181045 | 71 | 115 | 0.0 | 0.9 | 0.00 | 0.00 | 0.00 | 75 | 1010.0 |
| 20260905180545 | 71 | 113 | 2.6 | 2.6 | 0.00 | 0.00 | 0.00 | 76 | 1010.4 |
| 20260905180040 | 71 | 138 | 0.9 | 0.9 | 0.00 | 0.00 | 0.00 | 75 | 1010.3 |
| 20260905175539 | 72 | 102 | 0.9 | 0.9 | 0.00 | 0.00 | 0.00 | 76 | 1010.1 |
| 20260905175035 | 71 | 140 | 1.7 | 1.7 | 0.00 | 0.00 | 0.00 | 76 | 1010.3 |
| 20260905174531 | 72 | 91 | 1.7 | 1.7 | 0.00 | 0.00 | 0.00 | 74 | 1010.2 |
| 20260905174026 | 72 | 84 | 2.6 | 2.6 | 0.00 | 0.00 | 0.00 | 73 | 1009.9 |
| 20260905173522 | 71 | 98 | 1.7 | 1.7 | 0.00 | 0.00 | 0.00 | 73 | 1010.1 |
| 20260905173018 | 72 | 78 | 2.6 | 2.6 | 0.00 | 0.00 | 0.00 | 73 | 1009.9 |
| 20260905172516 | 73 | 65 | 1.7 | 1.7 | 0.00 | 0.00 | 0.00 | 74 | 1010.0 |
| 20260905172012 | 71 | 95 | 0.9 | 0.9 | 0.00 | 0.00 | 0.00 | 74 | 1010.0 |
| 20260905171508 | 71 | 119 | 0.9 | 1.7 | 0.00 | 0.00 | 0.00 | 75 | 1010.0 |
| 20260905171003 | 71 | 102 | 0.9 | 0.9 | 0.00 | 0.00 | 0.00 | 75 | 1009.9 |
| 20260905170500 | 72 | 103 | 0.9 | 1.7 | 0.00 | 0.00 | 0.00 | 75 | 1009.9 |
| 20260905165954 | 71 | 94 | 1.7 | 1.7 | 0.00 | 0.00 | 0.00 | 75 | 1009.9 |
| 20260905165449 | 72 | 75 | 2.6 | 2.6 | 0.00 | 0.00 | 0.00 | 73 | 1009.8 |
| 20260905164944 | 71 | 81 | 2.6 | 2.6 | 0.00 | 0.00 | 0.00 | 73 | 1010.0 |
| 20260905164438 | 71 | 145 | 0.9 | 0.9 | 0.00 | 0.00 | 0.00 | 74 | 1009.9 |
| 20260905163933 | 71 | 90 | 0.0 | 0.9 | 0.00 | 0.00 | 0.00 | 74 | 1009.9 |
| 20260905163430 | 71 | 118 | 0.0 | 0.9 | 0.00 | 0.00 | 0.00 | 75 | 1010.0 |
| 20260905162925 | 71 | 115 | 2.6 | 6.1 | 0.00 | 0.00 | 0.00 | 74 | 1009.7 |
| 20260905162420 | 70 | 91 | 0.0 | 0.9 | 0.00 | 0.00 | 0.00 | 77 | 1009.9 |
| 20260905161915 | 70 | 104 | 0.9 | 0.9 | 0.00 | 0.00 | 0.00 | 77 | 1009.9 |
| 20260905161414 | 71 | 92 | 1.7 | 1.7 | 0.00 | 0.00 | 0.00 | 75 | 1009.8 |
| 20260905160912 | 70 | 111 | 2.6 | 2.6 | 0.00 | 0.00 | 0.00 | 76 | 1010.0 |
| 20260905160406 | 69 | 105 | 0.9 | 0.9 | 0.00 | 0.00 | 0.00 | 80 | 1010.0 |
| 20260905155900 | 68 | 127 | 1.7 | 1.7 | 0.00 | 0.00 | 0.00 | 80 | 1010.1 |
| 20260905155355 | 68 | 102 | 1.7 | 1.7 | 0.00 | 0.00 | 0.00 | 80 | 1010.1 |
| 20260905154854 | 68 | 76 | 1.7 | 1.7 | 0.00 | 0.00 | 0.00 | 80 | 1010.4 |
| 20260905154350 | 68 | 106 | 0.9 | 0.9 | 0.00 | 0.00 | 0.00 | 79 | 1010.3 |
| 20260905153845 | 69 | 85 | 0.9 | 0.9 | 0.00 | 0.00 | 0.00 | 79 | 1010.1 |
| 20260905153341 | 69 | 111 | 0.0 | 0.9 | 0.00 | 0.00 | 0.00 | 78 | 1010.2 |
| 20260905152841 | 68 | 90 | 0.9 | 0.9 | 0.00 | 0.00 | 0.00 | 81 | 1010.1 |
| 20260905152340 | 68 | 112 | 0.0 | 0.0 | 0.00 | 0.00 | 0.00 | 82 | 1010.2 |
| 20260905151835 | 68 | 108 | 0.9 | 0.9 | 0.00 | 0.00 | 0.00 | 82 | 1010.1 |
| 20260905151331 | 67 | 106 | 0.0 | 0.9 | 0.00 | 0.00 | 0.00 | 83 | 1010.2 |
| 20260905150830 | 67 | 95 | 0.9 | 0.9 | 0.00 | 0.00 | 0.00 | 83 | 1010.1 |
| 20260905150325 | 67 | 106 | 0.0 | 0.0 | 0.00 | 0.00 | 0.00 | 84 | 1010.0 |
| 20260905145823 | 68 | 137 | 0.0 | 0.9 | 0.00 | 0.00 | 0.00 | 82 | 1010.0 |
| 20260905145322 | 68 | 93 | 0.0 | 0.9 | 0.00 | 0.00 | 0.00 | 81 | 1010.2 |
| 20260905144821 | 69 | 118 | 0.9 | 0.9 | 0.00 | 0.00 | 0.00 | 80 | 1010.3 |
| 20260905144317 | 70 | 192 | 0.9 | 1.7 | 0.00 | 0.00 | 0.00 | 78 | 1010.2 |
| 20260905143816 | 69 | 106 | 0.9 | 0.9 | 0.00 | 0.00 | 0.00 | 80 | 1010.0 |
| 20260905143310 | 70 | 110 | 0.0 | 0.9 | 0.00 | 0.00 | 0.00 | 78 | 1009.9 |
| 20260905142809 | 70 | 80 | 1.7 | 1.7 | 0.00 | 0.00 | 0.00 | 79 | 1010.1 |
| 20260905142306 | 69 | 95 | 0.9 | 1.7 | 0.00 | 0.00 | 0.00 | 81 | 1010.3 |
| 20260905141800 | 69 | 97 | 0.9 | 0.9 | 0.00 | 0.00 | 0.00 | 80 | 1010.4 |
| 20260905141255 | 68 | 100 | 0.9 | 1.7 | 0.00 | 0.00 | 0.00 | 81 | 1010.0 |
| 20260905140751 | 68 | 117 | 1.7 | 2.6 | 0.00 | 0.00 | 0.00 | 80 | 1010.2 |
| 20260905140250 | 67 | 104 | 0.9 | 0.9 | 0.00 | 0.00 | 0.00 | 84 | 1010.2 |
| 20260905135749 | 67 | 100 | 0.9 | 0.9 | 0.00 | 0.00 | 0.00 | 84 | 1010.2 |
| 20260905135246 | 67 | 91 | 1.7 | 1.7 | 0.00 | 0.00 | 0.00 | 83 | 1010.2 |
| 20260905134745 | 68 | 102 | 0.9 | 0.9 | 0.00 | 0.00 | 0.00 | 83 | 1010.0 |
| 20260905134245 | 68 | 108 | 0.0 | 0.0 | 0.00 | 0.00 | 0.00 | 84 | 1009.9 |
| 20260905133739 | 67 | 118 | 0.0 | 0.9 | 0.00 | 0.00 | 0.00 | 83 | 1010.1 |
| 20260905133235 | 67 | 86 | 1.7 | 1.7 | 0.00 | 0.00 | 0.00 | 83 | 1009.9 |
| 20260905132733 | 68 | 119 | 2.6 | 2.6 | 0.00 | 0.00 | 0.00 | 83 | 1009.9 |
| 20260905132230 | 67 | 104 | 0.0 | 0.0 | 0.00 | 0.00 | 0.00 | 86 | 1009.9 |
| 20260905131724 | 66 | 106 | 0.0 | 0.0 | 0.00 | 0.00 | 0.00 | 88 | 1009.6 |
| 20260905131220 | 66 | 105 | 0.0 | 0.0 | 0.00 | 0.00 | 0.00 | 88 | 1009.6 |
| 20260905130714 | 66 | 101 | 0.9 | 0.9 | 0.00 | 0.00 | 0.00 | 88 | 1009.6 |
| 20260905130213 | 66 | 104 | 0.0 | 0.0 | 0.00 | 0.00 | 0.00 | 89 | 1009.6 |
| 20260905125709 | 66 | 96 | 0.9 | 0.9 | 0.00 | 0.00 | 0.00 | 89 | 1009.6 |
| 20260905125204 | 66 | 102 | 0.0 | 0.0 | 0.00 | 0.00 | 0.00 | 88 | 1009.6 |
| 20260905124700 | 66 | 98 | 0.9 | 0.9 | 0.00 | 0.00 | 0.00 | 88 | 1009.6 |
| 20260905124155 | 65 | 104 | 0.0 | 0.9 | 0.00 | 0.00 | 0.00 | 88 | 1009.4 |
| 20260905123650 | 66 | 107 | 0.9 | 1.7 | 0.00 | 0.00 | 0.00 | 88 | 1009.3 |
| 20260905123148 | 66 | 107 | 0.0 | 0.0 | 0.00 | 0.00 | 0.00 | 88 | 1009.3 |
| 20260905122647 | 65 | 101 | 1.7 | 1.7 | 0.00 | 0.00 | 0.00 | 89 | 1009.5 |
| 20260905122142 | 65 | 91 | 0.9 | 0.9 | 0.00 | 0.00 | 0.00 | 90 | 1009.3 |
| 20260905121642 | 64 | 97 | 0.0 | 0.0 | 0.00 | 0.00 | 0.00 | 91 | 1009.2 |
| 20260905121138 | 63 | 88 | 0.9 | 0.9 | 0.00 | 0.00 | 0.00 | 91 | 1009.1 |
| 20260905120637 | 63 | 108 | 0.9 | 0.9 | 0.00 | 0.00 | 0.00 | 92 | 1009.2 |
| 20260905120132 | 63 | 98 | 0.9 | 0.9 | 0.00 | 0.00 | 0.00 | 92 | 1009.3 |
| 20260905115631 | 63 | 106 | 0.0 | 0.0 | 0.00 | 0.00 | 0.00 | 92 | 1009.1 |
| 20260905115127 | 63 | 103 | 0.9 | 0.9 | 0.00 | 0.00 | 0.00 | 92 | 1009.0 |
| 20260905114626 | 63 | 87 | 1.7 | 1.7 | 0.00 | 0.00 | 0.00 | 92 | 1008.9 |
| 20260905114125 | 63 | 99 | 0.9 | 0.9 | 0.00 | 0.00 | 0.00 | 92 | 1009.1 |
| 20260905113620 | 63 | 122 | 0.9 | 0.9 | 0.00 | 0.00 | 0.00 | 92 | 1008.9 |
| 20260905113115 | 63 | 91 | 0.9 | 0.9 | 0.00 | 0.00 | 0.00 | 92 | 1008.9 |
| 20260905112610 | 62 | 99 | 1.7 | 1.7 | 0.00 | 0.00 | 0.00 | 92 | 1009.0 |
| 20260905112106 | 62 | 107 | 0.0 | 0.9 | 0.00 | 0.00 | 0.00 | 92 | 1009.0 |
| 20260905111601 | 62 | 95 | 0.9 | 0.9 | 0.00 | 0.00 | 0.00 | 92 | 1008.9 |
| 20260905111059 | 62 | 93 | 0.9 | 1.7 | 0.00 | 0.00 | 0.00 | 93 | 1008.7 |
| 20260905110558 | 62 | 106 | 0.9 | 0.9 | 0.00 | 0.00 | 0.00 | 93 | 1008.8 |
| 20260905110054 | 62 | 97 | 0.9 | 1.7 | 0.00 | 0.00 | 0.00 | 93 | 1008.6 |
| 20260905105553 | 62 | 104 | 0.9 | 0.9 | 0.00 | 0.00 | 0.00 | 93 | 1008.7 |
| 20260905105048 | 62 | 105 | 0.9 | 0.9 | 0.00 | 0.00 | 0.00 | 94 | 1008.8 |
| 20260905104544 | 61 | 97 | 0.9 | 0.9 | 0.00 | 0.00 | 0.00 | 94 | 1008.6 |
| 20260905104043 | 61 | 106 | 0.9 | 0.9 | 0.00 | 0.00 | 0.00 | 95 | 1008.6 |
| 20260905103539 | 61 | 104 | 0.0 | 0.0 | 0.00 | 0.00 | 0.00 | 95 | 1008.7 |
| 20260905103035 | 61 | 102 | 1.7 | 1.7 | 0.00 | 0.00 | 0.00 | 96 | 1008.6 |
| 20260905102530 | 61 | 107 | 0.0 | 0.0 | 0.00 | 0.00 | 0.00 | 96 | 1008.6 |
| 20260905102026 | 60 | 104 | 0.0 | 0.0 | 0.00 | 0.00 | 0.00 | 96 | 1008.6 |
| 20260905101525 | 60 | 109 | 0.0 | 0.0 | 0.00 | 0.00 | 0.00 | 96 | 1008.3 |
| 20260905101023 | 61 | 109 | 0.0 | 0.0 | 0.00 | 0.00 | 0.00 | 95 | 1008.6 |
| 20260905100520 | 61 | 106 | 0.0 | 0.0 | 0.00 | 0.00 | 0.00 | 95 | 1008.6 |
| 20260905100019 | 61 | 109 | 0.0 | 0.0 | 0.00 | 0.00 | 0.00 | 95 | 1008.3 |
| 20260905095514 | 61 | 108 | 0.0 | 0.0 | 0.00 | 0.00 | 0.00 | 95 | 1008.4 |
| 20260905095009 | 61 | 102 | 0.0 | 0.0 | 0.00 | 0.00 | 0.00 | 95 | 1008.1 |
| 20260905094504 | 61 | 102 | 0.0 | 0.0 | 0.00 | 0.00 | 0.00 | 94 | 1008.0 |
| 20260905094003 | 62 | 108 | 0.0 | 0.0 | 0.00 | 0.00 | 0.00 | 94 | 1008.3 |
| 20260905093458 | 62 | 102 | 0.0 | 0.0 | 0.00 | 0.00 | 0.00 | 93 | 1008.2 |
| 20260905092954 | 62 | 106 | 0.9 | 0.9 | 0.00 | 0.00 | 0.00 | 92 | 1008.1 |
| 20260905092450 | 62 | 108 | 0.0 | 0.0 | 0.00 | 0.00 | 0.00 | 92 | 1008.1 |
| 20260905091945 | 62 | 107 | 0.0 | 0.0 | 0.00 | 0.00 | 0.00 | 92 | 1007.9 |
| 20260905091445 | 62 | 103 | 0.0 | 0.9 | 0.00 | 0.00 | 0.00 | 92 | 1008.1 |
| 20260905090944 | 62 | 96 | 1.7 | 1.7 | 0.00 | 0.00 | 0.00 | 92 | 1008.0 |
| 20260905090439 | 62 | 109 | 0.9 | 0.9 | 0.00 | 0.00 | 0.00 | 92 | 1008.1 |
| 20260905085939 | 62 | 99 | 0.0 | 0.0 | 0.00 | 0.00 | 0.00 | 92 | 1007.7 |
| 20260905085438 | 62 | 108 | 0.0 | 0.0 | 0.00 | 0.00 | 0.00 | 91 | 1008.0 |
| 20260905084934 | 62 | 98 | 0.9 | 0.9 | 0.00 | 0.00 | 0.00 | 91 | 1007.8 |
| 20260905084433 | 62 | 97 | 0.9 | 0.9 | 0.00 | 0.00 | 0.00 | 91 | 1007.9 |
| 20260905083928 | 62 | 96 | 0.9 | 0.9 | 0.00 | 0.00 | 0.00 | 91 | 1007.8 |
| 20260905083424 | 62 | 95 | 0.9 | 0.9 | 0.00 | 0.00 | 0.00 | 90 | 1007.8 |
| 20260905082920 | 63 | 108 | 0.9 | 1.7 | 0.00 | 0.00 | 0.00 | 90 | 1007.9 |
| 20260905082415 | 63 | 108 | 0.9 | 1.7 | 0.00 | 0.00 | 0.00 | 90 | 1007.9 |
| 20260905081910 | 63 | 93 | 1.7 | 1.7 | 0.00 | 0.00 | 0.00 | 89 | 1007.9 |
| 20260905081405 | 63 | 86 | 1.7 | 1.7 | 0.00 | 0.00 | 0.00 | 89 | 1007.9 |
| 20260905080903 | 63 | 93 | 1.7 | 1.7 | 0.00 | 0.00 | 0.00 | 89 | 1007.6 |
| 20260905080359 | 63 | 88 | 0.9 | 1.7 | 0.00 | 0.00 | 0.00 | 89 | 1007.8 |
| 20260905075858 | 63 | 90 | 1.7 | 1.7 | 0.00 | 0.00 | 0.00 | 89 | 1007.9 |
| 20260905075357 | 63 | 104 | 0.9 | 0.9 | 0.00 | 0.00 | 0.00 | 89 | 1007.7 |
| 20260905074856 | 63 | 97 | 1.7 | 1.7 | 0.00 | 0.00 | 0.00 | 89 | 1008.0 |
| 20260905074352 | 63 | 105 | 1.7 | 1.7 | 0.00 | 0.00 | 0.00 | 89 | 1007.8 |
| 20260905073848 | 63 | 100 | 1.7 | 1.7 | 0.00 | 0.00 | 0.00 | 89 | 1007.7 |
| 20260905073343 | 63 | 110 | 0.9 | 1.7 | 0.00 | 0.00 | 0.00 | 89 | 1008.0 |
| 20260905072838 | 63 | 103 | 0.9 | 1.7 | 0.00 | 0.00 | 0.00 | 89 | 1008.1 |
| 20260905072333 | 63 | 103 | 0.0 | 0.9 | 0.00 | 0.00 | 0.00 | 89 | 1007.9 |
| 20260905071829 | 63 | 103 | 0.0 | 0.0 | 0.00 | 0.00 | 0.00 | 88 | 1008.1 |
| 20260905071326 | 63 | 91 | 1.7 | 1.7 | 0.00 | 0.00 | 0.00 | 88 | 1008.1 |
| 20260905070819 | 64 | 93 | 0.9 | 0.9 | 0.00 | 0.00 | 0.00 | 88 | 1008.0 |
| 20260905070316 | 63 | 98 | 0.9 | 0.9 | 0.00 | 0.00 | 0.00 | 87 | 1008.3 |
| 20260905065815 | 63 | 103 | 1.7 | 1.7 | 0.00 | 0.00 | 0.00 | 88 | 1008.1 |
| 20260905065314 | 63 | 107 | 1.7 | 1.7 | 0.00 | 0.00 | 0.00 | 88 | 1008.2 |
| 20260905064809 | 63 | 109 | 0.9 | 1.7 | 0.00 | 0.00 | 0.00 | 88 | 1008.3 |
| 20260905064305 | 63 | 96 | 1.7 | 1.7 | 0.00 | 0.00 | 0.00 | 88 | 1008.2 |
| 20260905063803 | 63 | 110 | 0.9 | 0.9 | 0.00 | 0.00 | 0.00 | 88 | 1008.3 |
| 20260905063259 | 64 | 100 | 0.9 | 0.9 | 0.00 | 0.00 | 0.00 | 88 | 1008.6 |
| 20260905062755 | 64 | 100 | 0.9 | 1.7 | 0.00 | 0.00 | 0.00 | 87 | 1008.2 |
| 20260905062255 | 64 | 98 | 1.7 | 1.7 | 0.00 | 0.00 | 0.00 | 87 | 1008.2 |
| 20260905061749 | 64 | 116 | 0.9 | 0.9 | 0.00 | 0.00 | 0.00 | 86 | 1008.4 |
| 20260905061244 | 64 | 93 | 0.0 | 0.9 | 0.00 | 0.00 | 0.00 | 87 | 1008.6 |
| 20260905060738 | 64 | 86 | 1.7 | 1.7 | 0.00 | 0.00 | 0.00 | 87 | 1008.1 |
| 20260905060236 | 65 | 106 | 0.9 | 0.9 | 0.00 | 0.00 | 0.00 | 86 | 1008.4 |
| 20260905055734 | 65 | 106 | 0.9 | 1.7 | 0.00 | 0.00 | 0.00 | 85 | 1008.2 |
| 20260905055229 | 65 | 108 | 1.7 | 2.6 | 0.00 | 0.00 | 0.00 | 85 | 1008.4 |
| 20260905054724 | 65 | 83 | 2.6 | 2.6 | 0.00 | 0.00 | 0.00 | 85 | 1008.4 |
| 20260905054221 | 65 | 96 | 1.7 | 1.7 | 0.00 | 0.00 | 0.00 | 85 | 1008.4 |
| 20260905053719 | 65 | 90 | 1.7 | 1.7 | 0.00 | 0.00 | 0.00 | 85 | 1008.6 |
| 20260905053215 | 65 | 102 | 1.7 | 1.7 | 0.00 | 0.00 | 0.00 | 84 | 1008.6 |
| 20260905052714 | 66 | 114 | 1.7 | 1.7 | 0.00 | 0.00 | 0.00 | 84 | 1008.7 |
| 20260905052209 | 66 | 98 | 0.9 | 0.9 | 0.00 | 0.00 | 0.00 | 83 | 1008.3 |
| 20260905051709 | 66 | 105 | 1.7 | 1.7 | 0.00 | 0.00 | 0.00 | 83 | 1008.4 |
| 20260905051206 | 66 | 80 | 1.7 | 1.7 | 0.00 | 0.00 | 0.00 | 83 | 1008.8 |
| 20260905050702 | 65 | 106 | 1.7 | 1.7 | 0.00 | 0.00 | 0.00 | 84 | 1008.6 |
| 20260905050159 | 65 | 105 | 1.7 | 1.7 | 0.00 | 0.00 | 0.00 | 84 | 1008.6 |
| 20260905045658 | 65 | 107 | 0.9 | 0.9 | 0.00 | 0.00 | 0.00 | 84 | 1008.6 |
| 20260905045154 | 65 | 105 | 0.9 | 0.9 | 0.00 | 0.00 | 0.00 | 83 | 1008.3 |
| 20260905044649 | 66 | 102 | 0.9 | 0.9 | 0.00 | 0.00 | 0.00 | 83 | 1008.3 |
| 20260905044143 | 66 | 94 | 0.0 | 0.9 | 0.00 | 0.00 | 0.00 | 83 | 1008.2 |
| 20260905043642 | 65 | 86 | 0.9 | 1.7 | 0.00 | 0.00 | 0.00 | 83 | 1008.0 |
| 20260905043137 | 65 | 100 | 0.9 | 0.9 | 0.00 | 0.00 | 0.00 | 85 | 1008.3 |
| 20260905042637 | 65 | 104 | 0.0 | 0.9 | 0.00 | 0.00 | 0.00 | 85 | 1008.4 |
| 20260905042131 | 65 | 101 | 0.0 | 0.0 | 0.00 | 0.00 | 0.00 | 84 | 1008.7 |
| 20260905041627 | 66 | 140 | 0.9 | 0.9 | 0.00 | 0.00 | 0.00 | 83 | 1008.7 |
| 20260905041123 | 66 | 106 | 0.0 | 0.0 | 0.00 | 0.00 | 0.00 | 82 | 1008.7 |
| 20260905040623 | 66 | 105 | 0.9 | 0.9 | 0.00 | 0.00 | 0.00 | 81 | 1008.4 |
| 20260905040121 | 66 | 104 | 0.9 | 0.9 | 0.00 | 0.00 | 0.00 | 81 | 1008.7 |
| 20260905035616 | 66 | 108 | 0.9 | 0.9 | 0.00 | 0.00 | 0.00 | 82 | 1008.2 |
| 20260905035113 | 66 | 106 | 0.0 | 0.9 | 0.00 | 0.00 | 0.00 | 82 | 1008.4 |
| 20260905034609 | 66 | 104 | 0.0 | 0.9 | 0.00 | 0.00 | 0.00 | 82 | 1008.7 |
| 20260905034103 | 66 | 106 | 0.9 | 0.9 | 0.00 | 0.00 | 0.00 | 81 | 1008.7 |
| 20260905033602 | 66 | 106 | 0.9 | 0.9 | 0.00 | 0.00 | 0.00 | 81 | 1008.8 |
| 20260905033058 | 66 | 104 | 0.9 | 0.9 | 0.00 | 0.00 | 0.00 | 81 | 1008.4 |
| 20260905032557 | 66 | 105 | 0.9 | 0.9 | 0.00 | 0.00 | 0.00 | 82 | 1008.8 |
| 20260905032052 | 66 | 102 | 0.9 | 0.9 | 0.00 | 0.00 | 0.00 | 82 | 1008.8 |
| 20260905031548 | 66 | 98 | 0.9 | 0.9 | 0.00 | 0.00 | 0.00 | 82 | 1008.9 |
| 20260905031048 | 66 | 100 | 0.9 | 0.9 | 0.00 | 0.00 | 0.00 | 81 | 1008.7 |
| 20260905030543 | 66 | 97 | 0.9 | 0.9 | 0.00 | 0.00 | 0.00 | 82 | 1008.7 |
| 20260905030044 | 65 | 105 | 0.9 | 1.7 | 0.00 | 0.00 | 0.00 | 84 | 1008.9 |
| 20260905025539 | 65 | 100 | 0.9 | 0.9 | 0.00 | 0.00 | 0.00 | 85 | 1009.0 |
| 20260905025035 | 65 | 103 | 0.0 | 0.0 | 0.00 | 0.00 | 0.00 | 85 | 1009.0 |
| 20260905024530 | 65 | 102 | 0.0 | 0.0 | 0.00 | 0.00 | 0.00 | 87 | 1008.9 |
| 20260905024025 | 65 | 103 | 0.0 | 0.0 | 0.00 | 0.00 | 0.00 | 87 | 1008.9 |
| 20260905023520 | 65 | 106 | 0.0 | 0.0 | 0.00 | 0.00 | 0.00 | 86 | 1009.1 |
| 20260905023015 | 66 | 113 | 0.0 | 0.0 | 0.00 | 0.00 | 0.00 | 84 | 1009.1 |
| 20260905022509 | 66 | 105 | 0.0 | 0.0 | 0.00 | 0.00 | 0.00 | 82 | 1009.0 |
| 20260905022005 | 66 | 104 | 0.0 | 0.0 | 0.00 | 0.00 | 0.00 | 82 | 1009.0 |
| 20260905021504 | 66 | 109 | 0.0 | 0.0 | 0.00 | 0.00 | 0.00 | 82 | 1008.9 |
| 20260905021000 | 66 | 109 | 0.0 | 0.0 | 0.00 | 0.00 | 0.00 | 83 | 1009.0 |
| 20260905020500 | 66 | 105 | 0.0 | 0.0 | 0.00 | 0.00 | 0.00 | 81 | 1009.1 |
| 20260905015959 | 67 | 101 | 0.0 | 0.9 | 0.00 | 0.00 | 0.00 | 82 | 1009.3 |
| 20260905015458 | 67 | 108 | 0.9 | 0.9 | 0.00 | 0.00 | 0.00 | 79 | 1009.0 |
| 20260905014957 | 66 | 100 | 0.0 | 0.0 | 0.00 | 0.00 | 0.00 | 80 | 1009.2 |
| 20260905014452 | 66 | 102 | 0.0 | 0.0 | 0.00 | 0.00 | 0.00 | 82 | 1009.2 |
| 20260905013948 | 66 | 104 | 0.0 | 0.0 | 0.00 | 0.00 | 0.00 | 81 | 1009.4 |
| 20260905013444 | 66 | 105 | 0.0 | 0.0 | 0.00 | 0.00 | 0.00 | 83 | 1009.4 |
| 20260905012939 | 66 | 103 | 0.0 | 0.0 | 0.00 | 0.00 | 0.00 | 84 | 1009.5 |
| 20260905012434 | 66 | 108 | 0.0 | 0.0 | 0.00 | 0.00 | 0.00 | 82 | 1009.4 |
| 20260905011931 | 66 | 109 | 0.0 | 0.0 | 0.00 | 0.00 | 0.00 | 82 | 1009.4 |
| 20260905011427 | 67 | 131 | 0.0 | 0.0 | 0.00 | 0.00 | 0.00 | 81 | 1009.3 |
| 20260905010922 | 68 | 108 | 0.0 | 0.0 | 0.00 | 0.00 | 0.00 | 78 | 1009.3 |
| 20260905010417 | 68 | 106 | 0.0 | 0.0 | 0.00 | 0.00 | 0.00 | 78 | 1009.4 |
| 20260905005913 | 68 | 103 | 0.0 | 0.9 | 0.00 | 0.00 | 0.00 | 77 | 1009.4 |
| 20260905005409 | 69 | 108 | 0.0 | 0.9 | 0.00 | 0.00 | 0.00 | 74 | 1009.0 |
| 20260905004903 | 69 | 108 | 0.9 | 0.9 | 0.00 | 0.00 | 0.00 | 74 | 1009.3 |
| 20260905004403 | 69 | 104 | 0.9 | 0.9 | 0.00 | 0.00 | 0.00 | 74 | 1009.3 |
| 20260905003858 | 69 | 94 | 0.9 | 0.9 | 0.00 | 0.00 | 0.00 | 73 | 1009.2 |
| 20260905003354 | 69 | 104 | 0.9 | 0.9 | 0.00 | 0.00 | 0.00 | 72 | 1009.2 |
| 20260905002849 | 69 | 97 | 1.7 | 1.7 | 0.00 | 0.00 | 0.00 | 73 | 1009.3 |
| 20260905002344 | 70 | 108 | 0.9 | 0.9 | 0.00 | 0.00 | 0.00 | 71 | 1009.1 |
| 20260905001839 | 70 | 103 | 0.9 | 0.9 | 0.00 | 0.00 | 0.00 | 72 | 1008.9 |
| 20260905001339 | 70 | 100 | 0.9 | 1.7 | 0.00 | 0.00 | 0.00 | 71 | 1009.0 |
| 20260905000834 | 70 | 94 | 0.9 | 0.9 | 0.00 | 0.00 | 0.00 | 71 | 1009.2 |
| 20260905000329 | 71 | 100 | 0.9 | 0.9 | 0.00 | 0.00 | 0.00 | 71 | 1009.0 |
| 20260904235825 | 71 | 107 | 0.9 | 0.9 | 0.00 | 0.00 | 0.00 | 70 | 1009.1 |
| 20260904235320 | 71 | 107 | 0.9 | 0.9 | 0.00 | 0.00 | 0.00 | 70 | 1008.9 |
| 20260904234814 | 71 | 85 | 1.7 | 1.7 | 0.00 | 0.00 | 0.00 | 71 | 1009.0 |
| 20260904234309 | 71 | 86 | 0.9 | 0.9 | 0.00 | 0.00 | 0.00 | 71 | 1008.8 |
| 20260904233805 | 70 | 101 | 1.7 | 1.7 | 0.00 | 0.00 | 0.00 | 72 | 1008.4 |
| 20260904233301 | 70 | 108 | 1.7 | 1.7 | 0.00 | 0.00 | 0.00 | 75 | 1008.8 |
| 20260904232757 | 69 | 109 | 0.9 | 0.9 | 0.00 | 0.00 | 0.00 | 78 | 1008.7 |
| 20260904232253 | 69 | 101 | 0.9 | 0.9 | 0.00 | 0.00 | 0.00 | 81 | 1008.7 |
| 20260904231749 | 70 | 106 | 0.0 | 0.0 | 0.00 | 0.00 | 0.00 | 82 | 1008.4 |
| 20260904231244 | 70 | 106 | 0.0 | 0.0 | 0.00 | 0.00 | 0.00 | 79 | 1008.4 |
| 20260904230739 | 71 | 105 | 0.0 | 0.0 | 0.00 | 0.00 | 0.00 | 77 | 1008.4 |
| 20260904230233 | 71 | 102 | 0.0 | 0.0 | 0.00 | 0.00 | 0.00 | 75 | 1008.3 |
| 20260904225732 | 72 | 106 | 0.0 | 0.9 | 0.00 | 0.00 | 0.00 | 73 | 1008.4 |
| 20260904225226 | 72 | 104 | 0.0 | 0.0 | 0.00 | 0.00 | 0.00 | 75 | 1008.6 |